GW1690 Weather Reports


Display with metric or nautical units.
time (UTC)temp
F
wind
direction
speed
MPH
gust
MPH
rain 1hr
in
rain 24hr
in
rain mn
in
humidity
%
barometer
mb
20260510023024 69 0.0 0.0 0.00 0.37 0.00 57 1031.3
20260510022523 69 0.0 0.0 0.00 0.38 0.00 57 1029.8
20260510022023 69 0.0 0.0 0.00 0.40 0.00 55 1026.2
20260510021542 69 0.0 0.0 0.00 0.42 0.00 55 1025.7
20260510021022 70 0.0 0.0 0.00 0.43 0.00 53 1022.5
20260510020520 70 0.0 0.0 0.00 0.43 0.00 53 1022.2
20260510020023 70 0.0 0.0 0.00 0.43 0.00 53 1021.5
20260510015600 70 0.0 0.0 0.00 0.43 0.00 53 1020.6
20260510015021 70 0.0 0.0 0.00 0.43 0.00 53 1021.1
20260510014521 71 0.0 0.0 0.00 0.43 0.00 52 1019.1
20260510014042 71 0.0 0.0 0.00 0.43 0.00 51 1018.3
20260510013523 72 0.0 0.0 0.00 0.43 0.00 51 1018.1
20260510013021 72 0.0 0.0 0.00 0.43 0.00 50 1016.8
20260510012521 72 0.0 0.0 0.00 0.43 0.00 49 1014.8
20260510012023 73 0.0 0.0 0.00 0.43 0.00 48 1013.4
20260510011521 73 0.0 0.0 0.00 0.43 0.00 48 1012.8
20260510011041 73 0.0 0.0 0.00 0.43 0.00 47 1011.9
20260510010522 74 0.0 0.0 0.00 0.43 0.00 47 1011.8
20260510010022 74 0.0 0.0 0.00 0.44 0.00 47 1011.8
20260510005523 74 0.0 0.0 0.00 0.44 0.00 46 1011.3
20260510005022 75 0.0 0.0 0.00 0.44 0.00 45 1010.2
20260510004522 75 0.0 0.0 0.00 0.44 0.00 44 1009.9
20260510004022 75 209 0.0 1.0 0.00 0.45 0.00 44 1009.8
20260510003602 76 0.0 0.0 0.00 0.46 0.00 43 1009.3
20260510003022 76 280 0.0 1.0 0.00 0.46 0.00 43 1009.2
20260510002522 76 0.0 0.0 0.00 0.46 0.00 43 1009.0
20260510002024 77 195 0.0 1.0 0.00 0.47 0.00 44 1009.6
20260510001522 77 198 0.0 1.0 0.00 0.47 0.00 42 1008.8
20260510001023 77 151 0.0 0.0 0.00 0.47 0.00 43 1009.0
20260510000523 77 185 0.0 1.0 0.00 0.47 0.00 42 1008.7
20260510000022 77 165 0.0 2.0 0.00 0.47 0.00 42 1008.6
20260509235520 78 189 1.0 2.0 0.00 0.47 0.00 40 1008.1
20260509235025 78 203 1.0 2.0 0.00 0.47 0.00 40 1008.3
20260509234523 78 191 1.0 3.0 0.00 0.47 0.00 40 1007.9
20260509234024 78 184 1.0 4.0 0.00 0.47 0.00 40 1008.0
20260509233523 78 195 0.0 2.0 0.00 0.47 0.00 40 1008.2
20260509233023 79 193 0.0 4.0 0.00 0.47 0.00 40 1008.2
20260509232523 79 180 1.0 4.0 0.00 0.47 0.00 41 1008.0
20260509232020 79 188 0.0 1.0 0.00 0.47 0.00 39 1007.7
20260509231521 79 188 0.0 2.0 0.00 0.47 0.00 41 1008.3
20260509231022 79 316 0.0 3.0 0.00 0.47 0.00 38 1007.6
20260509230541 79 198 1.0 5.0 0.00 0.47 0.00 40 1008.0
20260509230021 79 191 1.0 4.0 0.00 0.47 0.00 39 1007.9
20260509225521 79 193 1.0 4.0 0.00 0.47 0.00 40 1008.0
20260509225024 80 183 1.0 6.0 0.00 0.47 0.00 41 1008.4
20260509224524 80 224 1.0 3.0 0.00 0.47 0.00 41 1008.1
20260509224026 80 275 1.0 2.0 0.00 0.47 0.00 40 1008.2
20260509223524 80 292 0.0 2.0 0.00 0.47 0.00 40 1007.9
20260509223044 80 184 1.0 5.0 0.00 0.47 0.00 40 1008.1
20260509222541 80 186 2.0 3.0 0.00 0.47 0.00 41 1008.5
20260509222023 80 179 1.0 3.0 0.00 0.47 0.00 42 1008.4
20260509221521 81 189 1.0 3.0 0.00 0.47 0.00 42 1008.7
20260509221042 81 170 1.0 4.0 0.00 0.47 0.00 40 1008.0
20260509220542 83 170 2.0 5.0 0.00 0.47 0.00 40 1007.7
20260509220042 83 278 1.0 3.0 0.00 0.47 0.00 41 1008.4
20260509215522 83 187 1.0 3.0 0.00 0.47 0.00 39 1007.9
20260509215024 82 306 1.0 3.0 0.00 0.47 0.00 39 1007.8
20260509214523 82 330 0.0 2.0 0.00 0.47 0.00 40 1008.1
20260509214022 82 334 1.0 3.0 0.00 0.47 0.00 39 1007.8
20260509213523 81 311 1.0 4.0 0.00 0.47 0.00 40 1007.9
20260509213022 81 258 1.0 4.0 0.00 0.47 0.00 41 1008.1
20260509212523 81 195 1.0 4.0 0.00 0.47 0.00 42 1008.8
20260509212043 81 334 1.0 3.0 0.00 0.47 0.00 40 1007.8
20260509211543 81 301 1.0 5.0 0.00 0.47 0.00 41 1008.2
20260509211023 81 287 1.0 3.0 0.00 0.47 0.00 41 1008.4
20260509210523 80 212 1.0 4.0 0.00 0.47 0.00 42 1008.5
20260509210024 80 324 1.0 4.0 0.00 0.47 0.00 42 1008.7
20260509205520 80 182 2.0 6.0 0.00 0.47 0.00 42 1008.3
20260509205044 80 192 1.0 5.0 0.00 0.47 0.00 43 1009.1
20260509204544 80 185 2.0 5.0 0.00 0.47 0.00 42 1008.7
20260509204023 80 192 1.0 3.0 0.00 0.47 0.00 42 1009.6
20260509203523 80 320 1.0 5.0 0.00 0.47 0.00 40 1008.2
20260509203044 80 323 1.0 5.0 0.00 0.47 0.00 41 1008.3
20260509202521 80 193 1.0 5.0 0.00 0.47 0.00 42 1009.4
20260509202021 80 207 1.0 3.0 0.00 0.47 0.00 41 1008.7
20260509201542 80 184 2.0 6.0 0.00 0.47 0.00 42 1008.8
20260509201020 80 194 1.0 5.0 0.00 0.47 0.00 43 1009.9
20260509200541 80 327 1.0 4.0 0.00 0.47 0.00 44 1009.9
20260509200025 79 186 1.0 5.0 0.00 0.47 0.00 46 1011.2
20260509195525 79 183 1.0 4.0 0.00 0.47 0.00 45 1011.7
20260509195024 80 177 2.0 5.0 0.00 0.47 0.00 43 1009.9
20260509194521 80 272 1.0 6.0 0.00 0.47 0.00 44 1009.7
20260509194103 80 324 1.0 3.0 0.00 0.47 0.00 43 1009.8
20260509193521 80 322 1.0 3.0 0.00 0.47 0.00 44 1010.2
20260509193041 80 224 1.0 3.0 0.00 0.47 0.00 44 1010.1
20260509192522 79 311 1.0 5.0 0.00 0.47 0.00 44 1009.7
20260509192021 79 209 1.0 3.0 0.00 0.47 0.00 43 1009.6
20260509191544 79 316 2.0 6.0 0.00 0.47 0.00 43 1010.3
20260509191022 79 314 1.0 4.0 0.00 0.47 0.00 44 1009.7
20260509190521 79 216 1.0 5.0 0.00 0.47 0.00 44 1010.2
20260509190022 79 207 1.0 6.0 0.00 0.47 0.00 47 1012.0
20260509185523 79 192 2.0 5.0 0.00 0.47 0.00 48 1013.0
20260509185024 80 197 2.0 5.0 0.00 0.47 0.00 46 1011.8
20260509184523 80 219 1.0 6.0 0.00 0.47 0.00 44 1010.5
20260509184044 81 307 1.0 6.0 0.00 0.47 0.00 45 1009.6
20260509183522 81 192 2.0 5.0 0.00 0.47 0.00 46 1011.6
20260509183023 81 248 1.0 3.0 0.00 0.47 0.00 46 1010.3
20260509182523 82 241 1.0 6.0 0.00 0.47 0.00 47 1010.8
20260509182023 82 205 2.0 5.0 0.00 0.47 0.00 46 1010.8
20260509181523 82 316 1.0 6.0 0.00 0.47 0.00 46 1009.9
20260509181040 80 252 1.0 3.0 0.00 0.47 0.00 47 1011.3
20260509180520 79 342 0.0 3.0 0.00 0.47 0.00 49 1013.5
20260509180023 78 174 2.0 4.0 0.00 0.47 0.00 52 1018.5
20260509175527 78 218 1.0 4.0 0.00 0.47 0.00 50 1014.0
20260509175023 77 212 1.0 4.0 0.00 0.47 0.00 52 1018.2
20260509174523 76 172 2.0 7.0 0.00 0.47 0.00 54 1021.3
20260509174023 76 187 3.0 7.0 0.00 0.47 0.00 54 1020.4
20260509173523 75 185 2.0 5.0 0.00 0.47 0.00 55 1024.3
20260509173023 75 185 3.0 7.0 0.00 0.47 0.00 55 1022.3
20260509172521 75 185 3.0 9.0 0.00 0.47 0.00 55 1020.9
20260509172023 75 183 2.0 6.0 0.00 0.47 0.00 56 1028.8
20260509171521 75 176 1.0 4.0 0.00 0.47 0.00 58 1027.5
20260509171021 75 188 2.0 5.0 0.00 0.47 0.00 57 1024.7
20260509170521 75 196 2.0 5.0 0.00 0.47 0.00 58 1026.0
20260509170024 75 194 2.0 7.0 0.00 0.47 0.00 58 1027.9
20260509165525 74 184 1.0 4.0 0.00 0.47 0.00 59 1033.1
20260509165024 74 180 2.0 5.0 0.00 0.47 0.00 58 1029.8
20260509164525 73 214 1.0 4.0 0.00 0.47 0.00 60 1031.4
20260509164025 73 184 2.0 6.0 0.00 0.47 0.00 62 1033.8
20260509163524 72 174 2.0 4.0 0.00 0.47 0.00 62 1035.5
20260509163021 71 208 2.0 4.0 0.00 0.47 0.00 63 1034.0
20260509162522 71 171 3.0 5.0 0.00 0.47 0.00 63 1035.7
20260509162022 71 189 2.0 4.0 0.00 0.47 0.00 65 1035.1
20260509161522 71 188 2.0 4.0 0.00 0.47 0.00 65 1035.6
20260509161022 70 196 2.0 4.0 0.00 0.47 0.00 67 1032.4
20260509160522 69 195 2.0 4.0 0.00 0.47 0.00 69 1030.5
20260509160022 69 172 3.0 4.0 0.00 0.47 0.00 68 1031.1
20260509155522 69 182 2.0 4.0 0.00 0.47 0.00 69 1030.4
20260509155022 68 173 2.0 4.0 0.00 0.47 0.00 71 1025.8
20260509154522 68 175 1.0 5.0 0.00 0.47 0.00 72 1026.1
20260509154022 68 167 2.0 4.0 0.00 0.47 0.00 72 1025.8
20260509153542 67 173 2.0 6.0 0.00 0.47 0.00 72 1025.6
20260509153026 67 157 2.0 5.0 0.00 0.47 0.00 74 1024.8
20260509152526 67 175 2.0 5.0 0.00 0.47 0.00 74 1024.7
20260509152046 68 175 2.0 5.0 0.00 0.47 0.00 75 1025.3
20260509151520 67 192 2.0 3.0 0.00 0.47 0.00 76 1025.6
20260509151021 66 214 2.0 5.0 0.00 0.47 0.00 76 1025.5
20260509150542 65 205 2.0 6.0 0.00 0.47 0.00 77 1026.6
20260509150024 64 209 2.0 5.0 0.00 0.47 0.00 81 1032.0
20260509145523 64 180 3.0 6.0 0.00 0.47 0.00 80 1029.7
20260509145024 64 201 2.0 5.0 0.00 0.47 0.00 81 1030.8
20260509144523 64 201 2.0 4.0 0.00 0.47 0.00 81 1030.3
20260509144044 64 206 2.0 5.0 0.00 0.47 0.00 81 1032.0
20260509143544 63 219 2.0 8.0 0.00 0.47 0.00 82 1032.7
20260509143021 63 197 3.0 6.0 0.00 0.47 0.00 83 1033.1
20260509142522 62 215 2.0 9.0 0.00 0.47 0.00 84 1035.1
20260509142041 61 209 2.0 6.0 0.00 0.47 0.00 85 1035.6
20260509141521 61 198 2.0 4.0 0.00 0.47 0.00 86 1035.7
20260509141024 61 165 2.0 5.0 0.00 0.47 0.00 86 1035.8
20260509140544 60 209 2.0 4.0 0.00 0.47 0.00 87 1037.0
20260509140025 60 209 2.0 4.0 0.00 0.47 0.00 88 1038.2
20260509135521 60 213 2.0 3.0 0.00 0.47 0.00 90 1038.1
20260509135022 59 211 1.0 3.0 0.00 0.47 0.00 90 1036.4
20260509134522 59 208 2.0 4.0 0.00 0.47 0.00 91 1035.3
20260509134022 58 214 1.0 3.0 0.00 0.47 0.00 92 1034.7
20260509133521 58 221 1.0 2.0 0.00 0.47 0.00 93 1034.9
20260509133202 58 221 1.0 2.0 0.00 0.47 0.00 94 1035.1
20260509132524 58 220 1.0 2.0 0.00 0.47 0.00 93 1035.2
20260509132023 58 219 1.0 2.0 0.00 0.47 0.00 94 1035.7
20260509131523 58 218 2.0 2.0 0.00 0.47 0.00 94 1036.7
20260509131123 57 217 1.0 2.0 0.00 0.47 0.00 94 1038.9
20260509130523 57 217 2.0 3.0 0.00 0.47 0.00 94 1039.0
20260509130042 57 211 2.0 3.0 0.00 0.47 0.00 94 1038.2
20260509125547 57 219 2.0 6.0 0.00 0.47 0.00 95 1036.7
20260509125028 57 217 2.0 6.0 0.00 0.47 0.00 94 1035.2
20260509124528 57 218 3.0 7.0 0.00 0.47 0.00 95 1034.6
20260509124022 57 216 2.0 4.0 0.00 0.47 0.00 95 1034.5
20260509123523 57 225 2.0 4.0 0.00 0.47 0.00 95 1034.5
20260509123023 57 196 2.0 4.0 0.00 0.47 0.00 95 1034.4
20260509122524 57 221 2.0 5.0 0.00 0.47 0.00 95 1034.3
20260509122023 57 221 2.0 4.0 0.00 0.47 0.00 95 1034.2
20260509121546 57 226 2.0 4.0 0.00 0.47 0.00 95 1034.2
20260509121023 57 225 2.0 4.0 0.00 0.47 0.00 95 1034.2
20260509120523 57 198 1.0 3.0 0.00 0.47 0.00 95 1034.1
20260509120024 57 216 1.0 1.0 0.00 0.47 0.00 95 1034.1
20260509115525 57 186 1.0 2.0 0.00 0.47 0.00 95 1034.1
20260509115023 57 190 0.0 1.0 0.00 0.47 0.00 95 1034.0
20260509114525 57 187 1.0 3.0 0.00 0.47 0.00 95 1034.0
20260509114024 57 225 1.0 3.0 0.00 0.47 0.00 95 1033.9
20260509113524 56 219 1.0 2.0 0.00 0.47 0.00 95 1033.8
20260509113024 56 226 1.0 2.0 0.00 0.47 0.00 95 1033.8
20260509112545 56 219 1.0 2.0 0.00 0.47 0.00 95 1033.8
20260509112025 56 222 1.0 2.0 0.00 0.47 0.00 95 1033.8
20260509111524 56 212 1.0 2.0 0.00 0.47 0.00 95 1033.8
20260509111024 56 205 1.0 2.0 0.00 0.47 0.00 95 1033.9
20260509110526 56 211 1.0 2.0 0.00 0.47 0.00 95 1033.8
20260509110044 56 207 2.0 2.0 0.00 0.47 0.00 95 1033.7
20260509105525 56 195 2.0 3.0 0.00 0.47 0.00 95 1033.8
20260509105026 56 183 1.0 2.0 0.00 0.47 0.00 95 1033.9
20260509104525 56 215 2.0 3.0 0.00 0.47 0.00 95 1033.8
20260509104027 56 201 2.0 4.0 0.00 0.47 0.00 95 1033.6
20260509103525 57 214 2.0 4.0 0.00 0.47 0.00 95 1033.5
20260509103026 57 204 1.0 2.0 0.00 0.47 0.00 95 1033.5
20260509102545 57 214 1.0 3.0 0.00 0.47 0.00 95 1033.4
20260509102028 57 205 2.0 2.0 0.00 0.47 0.00 95 1033.4
20260509101545 57 175 2.0 3.0 0.00 0.47 0.00 95 1033.4
20260509101030 57 208 2.0 4.0 0.00 0.47 0.00 95 1033.3
20260509100548 57 203 2.0 3.0 0.00 0.47 0.00 95 1033.3
20260509100025 57 213 2.0 3.0 0.00 0.47 0.00 95 1033.2
20260509095526 57 222 2.0 3.0 0.00 0.47 0.00 95 1033.3
20260509095026 57 224 1.0 2.0 0.00 0.47 0.00 95 1033.3
20260509094546 57 224 1.0 2.0 0.00 0.47 0.00 95 1033.2
20260509094027 57 218 2.0 3.0 0.00 0.47 0.00 95 1033.2
20260509093526 57 203 2.0 5.0 0.00 0.47 0.00 95 1033.2
20260509093027 57 219 1.0 2.0 0.00 0.47 0.00 95 1033.2
20260509092526 57 214 1.0 2.0 0.00 0.47 0.00 95 1033.2
20260509092047 57 219 1.0 4.0 0.00 0.47 0.00 95 1033.1
20260509091526 57 218 1.0 1.0 0.00 0.47 0.00 95 1033.1
20260509091026 57 221 1.0 2.0 0.00 0.47 0.00 95 1033.2
20260509090530 57 210 1.0 2.0 0.00 0.47 0.00 95 1033.1
20260509090046 57 216 1.0 2.0 0.00 0.47 0.00 95 1033.2
20260509085531 57 216 1.0 2.0 0.00 0.47 0.00 95 1033.2
20260509085027 57 214 1.0 2.0 0.00 0.47 0.00 95 1033.2
20260509084527 57 220 1.0 2.0 0.00 0.47 0.00 95 1033.4
20260509084026 57 220 1.0 2.0 0.00 0.47 0.00 95 1033.4
20260509083548 57 217 1.0 2.0 0.00 0.47 0.00 95 1033.4
20260509083027 57 219 1.0 1.0 0.00 0.47 0.00 95 1033.5
20260509082528 56 218 1.0 2.0 0.00 0.47 0.00 95 1033.5
20260509082027 56 219 1.0 1.0 0.00 0.47 0.00 95 1033.5
20260509081530 56 215 1.0 2.0 0.00 0.47 0.00 95 1033.4
20260509081031 56 216 1.0 4.0 0.00 0.47 0.00 95 1033.4
20260509080524 56 215 2.0 5.0 0.00 0.47 0.00 95 1033.3
20260509080046 56 213 2.0 7.0 0.00 0.47 0.00 95 1033.3
20260509075548 56 218 1.0 2.0 0.00 0.47 0.00 95 1033.3
20260509075048 56 210 1.0 3.0 0.00 0.47 0.00 95 1033.3
20260509074531 57 203 2.0 4.0 0.00 0.47 0.00 95 1033.3
20260509074028 57 216 2.0 3.0 0.00 0.47 0.00 95 1033.4
20260509073530 57 206 2.0 4.0 0.00 0.47 0.00 95 1033.5
20260509073029 57 217 1.0 2.0 0.00 0.47 0.00 95 1033.7
20260509072529 57 215 1.0 2.0 0.00 0.47 0.00 95 1033.8
20260509072031 57 221 1.0 1.0 0.00 0.47 0.00 95 1033.9
20260509071529 57 218 1.0 1.0 0.00 0.47 0.00 95 1034.0
20260509071030 56 214 1.0 2.0 0.00 0.47 0.00 95 1034.0
20260509070528 56 217 1.0 2.0 0.00 0.47 0.00 95 1034.0
20260509070029 56 220 1.0 1.0 0.00 0.47 0.00 95 1034.0
20260509065529 56 223 0.0 1.0 0.00 0.47 0.00 95 1033.9
20260509065049 56 222 0.0 1.0 0.00 0.47 0.00 95 1033.9
20260509064528 56 222 0.0 1.0 0.00 0.47 0.00 95 1033.9
20260509064029 56 223 0.0 0.0 0.00 0.47 0.00 95 1034.0
20260509063532 56 223 0.0 0.0 0.00 0.47 0.00 95 1034.1
20260509063029 57 221 1.0 1.0 0.00 0.47 0.00 95 1034.1
20260509062529 57 221 1.0 1.0 0.00 0.47 0.00 95 1034.2
20260509062029 57 220 1.0 1.0 0.00 0.47 0.00 95 1034.1
20260509061532 57 219 1.0 1.0 0.00 0.47 0.00 95 1034.2
20260509061110 57 218 1.0 2.0 0.00 0.47 0.00 95 1034.3
20260509060522 57 219 1.0 1.0 0.00 0.47 0.00 95 1034.5
20260509060022 57 218 1.0 2.0 0.00 0.47 0.00 95 1034.6
20260509055545 57 216 1.0 2.0 0.00 0.47 0.00 95 1034.8
20260509055024 57 219 1.0 2.0 0.00 0.47 0.00 95 1034.9
20260509054542 57 217 1.0 2.0 0.00 0.47 0.00 95 1035.2
20260509054024 57 216 1.0 2.0 0.00 0.47 0.00 95 1035.4
20260509053523 57 213 1.0 2.0 0.00 0.47 0.00 95 1035.5
20260509053026 57 214 1.0 2.0 0.00 0.47 0.00 95 1035.7
20260509052521 57 213 1.0 2.0 0.00 0.47 0.00 95 1035.9
20260509052025 57 211 1.0 2.0 0.00 0.47 0.00 95 1036.1
20260509051523 57 188 1.0 3.0 0.00 0.47 0.00 95 1036.2
20260509051024 57 118 1.0 2.0 0.00 0.47 0.00 95 1036.4
20260509050524 57 140 1.0 2.0 0.01 0.47 0.00 95 1036.7
20260509050023 57 117 1.0 3.0 0.02 0.47 0.00 95 1036.9
20260509045542 57 144 1.0 3.0 0.03 0.47 0.47 95 1037.1
20260509045024 58 156 2.0 3.0 0.04 0.47 0.47 95 1037.3
20260509044522 58 194 1.0 3.0 0.04 0.47 0.47 95 1037.6
20260509044044 58 154 2.0 4.0 0.06 0.47 0.47 95 1037.8
20260509043524 58 188 1.0 2.0 0.10 0.47 0.47 95 1038.2
20260509043023 58 153 1.0 3.0 0.12 0.47 0.47 95 1038.8
20260509042523 58 196 1.0 4.0 0.14 0.47 0.47 95 1039.4
20260509042043 58 210 1.0 3.0 0.16 0.47 0.47 95 1039.9
20260509041523 58 212 1.0 3.0 0.18 0.47 0.47 95 1040.4
20260509041025 58 224 1.0 4.0 0.20 0.46 0.46 95 1040.7
20260509040522 58 342 2.0 5.0 0.20 0.45 0.45 95 1040.7
20260509040020 58 225 2.0 5.0 0.21 0.44 0.44 95 1040.5
20260509035521 58 356 2.0 4.0 0.22 0.43 0.43 95 1040.2
20260509035023 58 175 1.0 4.0 0.24 0.43 0.43 95 1039.5
20260509034524 58 30 3.0 5.0 0.26 0.42 0.42 95 1038.8
20260509034023 58 313 2.0 3.0 0.28 0.41 0.41 95 1038.1
20260509033544 58 313 2.0 4.0 0.26 0.37 0.37 95 1037.6
20260509033021 58 20 2.0 4.0 0.24 0.34 0.34 95 1037.1
20260509032522 58 16 2.0 3.0 0.24 0.32 0.32 95 1036.6
20260509032021 58 7 2.0 3.0 0.24 0.31 0.31 95 1036.2
20260509031541 58 354 1.0 2.0 0.23 0.29 0.29 94 1035.7
20260509031022 58 347 1.0 3.0 0.23 0.26 0.26 94 1035.3
20260509030542 58 351 1.0 3.0 0.21 0.25 0.25 94 1035.0
20260509030046 59 349 1.0 2.0 0.19 0.23 0.23 94 1034.9
20260509025522 59 336 1.0 3.0 0.18 0.22 0.22 94 1034.9
20260509025022 59 323 1.0 2.0 0.16 0.19 0.19 94 1035.0
20260509024522 59 276 1.0 3.0 0.13 0.16 0.16 93 1035.3
20260509024022 59 276 1.0 4.0 0.09 0.13 0.13 93 1036.2
20260509023522 59 238 0.0 1.0 0.07 0.11 0.11 93 1038.5